(479236) = 2008 CV109 = 2011 UC71 = 2013 CD212

Discovered at Kitt Peak on 2008-02-09 by Spacewatch.

Orbit

Orbit type: Main Belt

Note: WebGL enabled browser required.

epoch2023-02-25.0
epoch JD2460000.5
perihelion date2022-07-05.14232
perihelion JD2459765.64232
argument of perihelion (°)105.58850
ascending node (°)315.27207
inclination (°)7.22867
eccentricity0.1698528
perihelion distance (AU)2.4960365
Tisserand w.r.t. Jupiter3.2
ΔV w.r.t. Earth (km/sec)10.2
semimajor axis (AU)3.0067396
mean anomaly (°)44.39815
mean daily motion (°/day)0.18904280
aphelion distance (AU)3.517
period (years)5.21
P-vector [x]0.48154890
P-vector [y]0.74816175
P-vector [z]0.45646976
Q-vector [x]-0.87193422
Q-vector [y]0.46159815
Q-vector [z]0.16327235
absolute magnitude16.95
phase slope0.15
uncertainty0
referenceMPO 731529
observations used142
oppositions11
arc length (days)8180
first opposition used2000
last opposition used2023
residual rms (arc-secs)0.78
perturbers coarse indicatorM-v
perturbers precise indicator003Ek
first observation date used2000-08-28.0
last observation date used2023-01-20.0
computer nameMPCLINUX
JD of orbit computation2457688.218185
perihelion JD uncertainty (days)3.0103E-04
argument of perihelion uncertainty (°)9.1939E-05
ascending node uncertainty (°)6.8113E-05
inclination uncertainty (°)1.0204E-05
eccentricity uncertainty 9.6195E-08
perihelion distance uncertainty (AU)3.0433E-07
Minimum Orbit Intersection Distances (in AU)
for orbit epoch: 2460000.5, reference: E2023-B58
Mercury2.18754
Venus1.78383
Earth1.51965
Mars0.97927
Jupiter1.86044
Saturn6.37439
Uranus15.2336
Neptune27.0228

Observations

147 total observations over interval: 2000 08 28.13261 – 2023 01 20.367557
These data are available for download (format description).

